| time (UTC) | temp C | wind direction | speed KPH | gust KPH | rain 1hr cm | rain 24hr cm | rain mn cm | humidity % | barometer mb |
| 20260506183259 | 13 | 210 | 6.4 | 19.3 | 0.00 | 0.00 | 0.00 | 91 | 1001.5 |
| 20260506182759 | 13 | 193 | 3.2 | 19.3 | 0.00 | 0.00 | 0.00 | 91 | 1001.5 |
| 20260506182259 | 13 | 212 | 8.0 | 19.3 | 0.00 | 0.00 | 0.00 | 91 | 1001.5 |
| 20260506181759 | 13 | 248 | 9.7 | 14.5 | 0.00 | 0.00 | 0.00 | 91 | 1001.5 |
| 20260506181259 | 13 | 186 | 4.8 | 25.7 | 0.00 | 0.00 | 0.00 | 91 | 1001.5 |
| 20260506180759 | 13 | 65 | 8.0 | 20.9 | 0.00 | 0.00 | 0.00 | 91 | 1001.5 |
| 20260506180259 | 13 | 162 | 11.3 | 19.3 | 0.00 | 0.00 | 0.00 | 90 | 1001.5 |
| 20260506175759 | 14 | 217 | 6.4 | 24.1 | 0.00 | 0.00 | 0.00 | 90 | 1001.5 |
| 20260506175259 | 14 | 142 | 4.8 | 24.1 | 0.00 | 0.00 | 0.00 | 90 | 1001.5 |
| 20260506174759 | 14 | 198 | 8.0 | 24.1 | 0.00 | 0.00 | 0.00 | 90 | 1001.5 |
| 20260506174259 | 14 | 183 | 9.7 | 29.0 | 0.00 | 0.00 | 0.00 | 90 | 1001.5 |
| 20260506173759 | 14 | 184 | 9.7 | 19.3 | 0.00 | 0.00 | 0.00 | 90 | 1001.5 |
| 20260506173259 | 14 | 162 | 3.2 | 16.1 | 0.00 | 0.00 | 0.00 | 90 | 1001.5 |
| 20260506172759 | 14 | 174 | 1.6 | 22.5 | 0.00 | 0.00 | 0.00 | 90 | 1001.8 |
| 20260506172259 | 13 | 179 | 3.2 | 22.5 | 0.00 | 0.00 | 0.00 | 90 | 1001.8 |
| 20260506171759 | 13 | 181 | 9.7 | 22.5 | 0.00 | 0.00 | 0.00 | 90 | 1001.8 |
| 20260506171259 | 13 | 183 | 6.4 | 25.7 | 0.00 | 0.00 | 0.00 | 90 | 1001.8 |
| 20260506170759 | 13 | 143 | 6.4 | 24.1 | 0.00 | 0.00 | 0.00 | 90 | 1001.8 |
| 20260506170259 | 13 | 275 | 11.3 | 22.5 | 0.00 | 0.00 | 0.00 | 90 | 1001.8 |
| 20260506165759 | 13 | 202 | 4.8 | 25.7 | 0.00 | 0.00 | 0.00 | 90 | 1001.9 |
| 20260506165259 | 14 | 207 | 8.0 | 24.1 | 0.00 | 0.00 | 0.00 | 90 | 1001.9 |
| 20260506164759 | 14 | 113 | 8.0 | 24.1 | 0.00 | 0.00 | 0.00 | 90 | 1001.9 |
| 20260506164259 | 14 | 252 | 6.4 | 24.1 | 0.00 | 0.00 | 0.00 | 90 | 1001.4 |
| 20260506163759 | 13 | 193 | 4.8 | 24.1 | 0.00 | 0.00 | 0.00 | 90 | 1001.4 |
| 20260506163259 | 13 | 184 | 8.0 | 24.1 | 0.00 | 0.00 | 0.00 | 90 | 1001.4 |
| 20260506162759 | 13 | 201 | 1.6 | 33.8 | 0.00 | 0.00 | 0.00 | 89 | 1001.5 |
| 20260506162259 | 13 | 117 | 16.1 | 33.8 | 0.00 | 0.00 | 0.00 | 89 | 1001.5 |
| 20260506161759 | 14 | 162 | 4.8 | 16.1 | 0.00 | 0.00 | 0.00 | 89 | 1001.5 |
| 20260506161259 | 14 | 156 | 6.4 | 29.0 | 0.00 | 0.00 | 0.00 | 89 | 1002.3 |
| 20260506160759 | 14 | 158 | 9.7 | 29.0 | 0.00 | 0.00 | 0.00 | 89 | 1002.3 |
| 20260506160259 | 14 | 144 | 9.7 | 16.1 | 0.00 | 0.00 | 0.00 | 89 | 1002.3 |
| 20260506155759 | 14 | 167 | 3.2 | 30.6 | 0.00 | 0.00 | 0.00 | 89 | 1002.6 |
| 20260506155259 | 14 | 176 | 1.6 | 30.6 | 0.00 | 0.00 | 0.00 | 89 | 1002.6 |
| 20260506154759 | 14 | 184 | 8.0 | 30.6 | 0.00 | 0.00 | 0.00 | 88 | 1002.6 |
| 20260506154259 | 14 | 176 | 8.0 | 32.2 | 0.00 | 0.00 | 0.00 | 88 | 1002.9 |
| 20260506153759 | 14 | 255 | 9.7 | 32.2 | 0.00 | 0.00 | 0.00 | 88 | 1002.9 |
| 20260506153259 | 14 | 209 | 6.4 | 14.5 | 0.00 | 0.00 | 0.00 | 88 | 1002.9 |
| 20260506152759 | 14 | 158 | 4.8 | 25.7 | 0.00 | 0.00 | 0.00 | 88 | 1003.0 |
| 20260506152259 | 14 | 166 | 4.8 | 19.3 | 0.00 | 0.00 | 0.00 | 87 | 1003.0 |
| 20260506151759 | 14 | 203 | 8.0 | 19.3 | 0.00 | 0.00 | 0.00 | 87 | 1003.0 |
| 20260506151259 | 14 | 193 | 11.3 | 25.7 | 0.00 | 0.00 | 0.00 | 87 | 1002.6 |
| 20260506150759 | 15 | 161 | 3.2 | 25.7 | 0.00 | 0.00 | 0.00 | 87 | 1002.6 |
| 20260506150303 | 15 | 184 | 4.8 | 19.3 | 0.00 | 0.00 | 0.00 | 87 | 1002.6 |
| 20260506145759 | 15 | 166 | 4.8 | 20.9 | 0.00 | 0.00 | 0.00 | 86 | 1002.6 |
| 20260506145259 | 15 | 181 | 3.2 | 20.9 | 0.00 | 0.00 | 0.00 | 86 | 1002.6 |
| 20260506144759 | 15 | 203 | 4.8 | 16.1 | 0.00 | 0.00 | 0.00 | 85 | 1002.6 |
| 20260506144259 | 15 | 143 | 4.8 | 20.9 | 0.00 | 0.00 | 0.00 | 85 | 1002.9 |
| 20260506143759 | 15 | 342 | 4.8 | 20.9 | 0.00 | 0.00 | 0.00 | 84 | 1002.9 |
| 20260506143259 | 15 | 128 | 4.8 | 20.9 | 0.00 | 0.00 | 0.00 | 83 | 1002.9 |
| 20260506142759 | 15 | 170 | 1.6 | 22.5 | 0.00 | 0.00 | 0.00 | 83 | 1002.9 |
| 20260506142259 | 15 | 199 | 8.0 | 22.5 | 0.00 | 0.00 | 0.00 | 82 | 1002.9 |
| 20260506141759 | 16 | 223 | 6.4 | 20.9 | 0.00 | 0.00 | 0.00 | 81 | 1002.9 |
| 20260506141259 | 16 | 194 | 6.4 | 20.9 | 0.00 | 0.00 | 0.00 | 80 | 1002.5 |
| 20260506140759 | 16 | 0 | 0.0 | 20.9 | 0.00 | 0.00 | 0.00 | 80 | 1002.5 |
| 20260506140259 | 16 | 187 | 3.2 | 14.5 | 0.00 | 0.00 | 0.00 | 80 | 1002.5 |
| 20260506135759 | 16 | 200 | 14.5 | 16.1 | 0.00 | 0.00 | 0.00 | 80 | 1002.6 |
| 20260506135259 | 16 | 275 | 4.8 | 14.5 | 0.00 | 0.00 | 0.00 | 81 | 1002.6 |
| 20260506134759 | 16 | 238 | 3.2 | 14.5 | 0.00 | 0.00 | 0.00 | 80 | 1002.6 |
| 20260506134259 | 16 | 193 | 4.8 | 19.3 | 0.00 | 0.00 | 0.00 | 80 | 1002.8 |
| 20260506133759 | 16 | 129 | 4.8 | 19.3 | 0.00 | 0.00 | 0.00 | 79 | 1002.8 |
| 20260506133259 | 16 | 172 | 4.8 | 11.3 | 0.00 | 0.00 | 0.00 | 79 | 1002.8 |
| 20260506132759 | 16 | 154 | 4.8 | 22.5 | 0.00 | 0.00 | 0.00 | 79 | 1002.9 |
| 20260506132259 | 16 | 137 | 3.2 | 19.3 | 0.00 | 0.00 | 0.00 | 79 | 1002.9 |
| 20260506131759 | 16 | 214 | 6.4 | 16.1 | 0.00 | 0.00 | 0.00 | 79 | 1002.9 |
| 20260506131259 | 16 | 150 | 14.5 | 22.5 | 0.00 | 0.00 | 0.00 | 79 | 1002.8 |
| 20260506130759 | 16 | 151 | 1.6 | 19.3 | 0.00 | 0.00 | 0.00 | 78 | 1002.8 |
| 20260506130259 | 16 | 198 | 8.0 | 9.7 | 0.00 | 0.00 | 0.00 | 78 | 1002.8 |
| 20260506125759 | 16 | 208 | 4.8 | 24.1 | 0.00 | 0.00 | 0.00 | 78 | 1002.9 |
| 20260506125259 | 16 | 197 | 14.5 | 24.1 | 0.00 | 0.00 | 0.00 | 77 | 1002.9 |
| 20260506124759 | 16 | 222 | 8.0 | 8.0 | 0.00 | 0.00 | 0.00 | 77 | 1002.9 |
| 20260506124259 | 16 | 220 | 3.2 | 22.5 | 0.00 | 0.00 | 0.00 | 77 | 1002.8 |
| 20260506123759 | 16 | 190 | 8.0 | 22.5 | 0.00 | 0.00 | 0.00 | 77 | 1002.8 |
| 20260506123259 | 16 | 204 | 11.3 | 22.5 | 0.00 | 0.00 | 0.00 | 77 | 1002.8 |
| 20260506122759 | 16 | 250 | 9.7 | 24.1 | 0.00 | 0.00 | 0.00 | 77 | 1002.7 |
| 20260506122259 | 16 | 206 | 9.7 | 24.1 | 0.00 | 0.00 | 0.00 | 77 | 1002.7 |
| 20260506121759 | 16 | 182 | 1.6 | 24.1 | 0.00 | 0.00 | 0.00 | 77 | 1002.7 |
| 20260506121316 | 16 | 136 | 3.2 | 20.9 | 0.00 | 0.00 | 0.00 | 77 | 1002.5 |
| 20260506120759 | 16 | 182 | 6.4 | 16.1 | 0.00 | 0.00 | 0.00 | 77 | 1002.5 |
| 20260506120259 | 16 | 235 | 9.7 | 14.5 | 0.00 | 0.00 | 0.00 | 77 | 1002.5 |
| 20260506115759 | 16 | 178 | 6.4 | 19.3 | 0.00 | 0.00 | 0.00 | 77 | 1002.5 |
| 20260506115259 | 16 | 186 | 4.8 | 19.3 | 0.00 | 0.00 | 0.00 | 77 | 1002.5 |
| 20260506114759 | 16 | 188 | 8.0 | 11.3 | 0.00 | 0.00 | 0.00 | 78 | 1002.5 |
| 20260506114259 | 16 | 214 | 9.7 | 19.3 | 0.00 | 0.00 | 0.00 | 78 | 1002.2 |
| 20260506113759 | 16 | 181 | 3.2 | 19.3 | 0.00 | 0.00 | 0.00 | 78 | 1002.2 |
| 20260506113259 | 16 | 165 | 3.2 | 11.3 | 0.00 | 0.00 | 0.00 | 77 | 1002.2 |
| 20260506112759 | 16 | 205 | 6.4 | 27.4 | 0.00 | 0.00 | 0.00 | 77 | 1002.5 |
| 20260506112259 | 16 | 181 | 4.8 | 27.4 | 0.00 | 0.00 | 0.00 | 77 | 1002.5 |
| 20260506111759 | 16 | 187 | 9.7 | 17.7 | 0.00 | 0.00 | 0.00 | 77 | 1002.5 |
| 20260506111259 | 16 | 167 | 3.2 | 25.7 | 0.00 | 0.00 | 0.00 | 77 | 1002.1 |
| 20260506110759 | 16 | 179 | 6.4 | 25.7 | 0.00 | 0.00 | 0.00 | 77 | 1002.1 |
| 20260506110259 | 16 | 177 | 11.3 | 25.7 | 0.00 | 0.00 | 0.00 | 77 | 1002.1 |
| 20260506105759 | 16 | 191 | 1.6 | 29.0 | 0.00 | 0.00 | 0.00 | 77 | 1002.0 |
| 20260506105259 | 16 | 202 | 3.2 | 19.3 | 0.00 | 0.00 | 0.00 | 77 | 1002.0 |
| 20260506104759 | 16 | 212 | 4.8 | 16.1 | 0.00 | 0.00 | 0.00 | 77 | 1002.0 |
| 20260506104259 | 16 | 216 | 9.7 | 27.4 | 0.00 | 0.00 | 0.00 | 77 | 1002.0 |
| 20260506103759 | 16 | 163 | 11.3 | 27.4 | 0.00 | 0.00 | 0.00 | 77 | 1002.0 |
| 20260506103259 | 16 | 188 | 6.4 | 24.1 | 0.00 | 0.00 | 0.00 | 77 | 1002.0 |
| 20260506102759 | 16 | 131 | 4.8 | 24.1 | 0.00 | 0.00 | 0.00 | 77 | 1002.0 |
| 20260506102259 | 16 | 204 | 3.2 | 24.1 | 0.00 | 0.00 | 0.00 | 77 | 1002.0 |
| 20260506101759 | 16 | 225 | 11.3 | 16.1 | 0.00 | 0.00 | 0.00 | 77 | 1002.0 |
| 20260506101259 | 16 | 172 | 4.8 | 22.5 | 0.00 | 0.00 | 0.00 | 76 | 1001.9 |
| 20260506100759 | 16 | 170 | 3.2 | 22.5 | 0.00 | 0.00 | 0.00 | 76 | 1001.9 |
| 20260506100259 | 16 | 210 | 17.7 | 22.5 | 0.00 | 0.00 | 0.00 | 76 | 1001.9 |
| 20260506095759 | 16 | 152 | 14.5 | 25.7 | 0.00 | 0.00 | 0.00 | 76 | 1001.9 |
| 20260506095259 | 16 | 220 | 17.7 | 25.7 | 0.00 | 0.00 | 0.00 | 76 | 1001.9 |
| 20260506094759 | 16 | 181 | 8.0 | 17.7 | 0.00 | 0.00 | 0.00 | 76 | 1001.9 |
| 20260506094259 | 16 | 224 | 11.3 | 27.4 | 0.00 | 0.00 | 0.00 | 76 | 1001.6 |
| 20260506093759 | 16 | 176 | 4.8 | 27.4 | 0.00 | 0.00 | 0.00 | 76 | 1001.6 |
| 20260506093259 | 16 | 162 | 14.5 | 27.4 | 0.00 | 0.00 | 0.00 | 76 | 1001.6 |
| 20260506092759 | 16 | 108 | 8.0 | 32.2 | 0.00 | 0.00 | 0.00 | 76 | 1001.5 |
| 20260506092259 | 16 | 207 | 8.0 | 32.2 | 0.00 | 0.00 | 0.00 | 76 | 1001.5 |
| 20260506091759 | 16 | 243 | 19.3 | 32.2 | 0.00 | 0.00 | 0.00 | 76 | 1001.5 |
| 20260506091259 | 17 | 150 | 14.5 | 27.4 | 0.00 | 0.00 | 0.00 | 76 | 1001.9 |
| 20260506090759 | 16 | 232 | 14.5 | 27.4 | 0.00 | 0.00 | 0.00 | 76 | 1001.9 |
| 20260506090259 | 17 | 193 | 4.8 | 27.4 | 0.00 | 0.00 | 0.00 | 75 | 1001.9 |
| 20260506085759 | 17 | 177 | 11.3 | 25.7 | 0.00 | 0.00 | 0.00 | 75 | 1002.0 |
| 20260506085259 | 17 | 196 | 4.8 | 22.5 | 0.00 | 0.00 | 0.00 | 75 | 1002.0 |
| 20260506084759 | 16 | 181 | 6.4 | 20.9 | 0.00 | 0.00 | 0.00 | 75 | 1002.0 |
| 20260506084259 | 17 | 201 | 4.8 | 22.5 | 0.00 | 0.00 | 0.00 | 75 | 1002.0 |
| 20260506083759 | 17 | 125 | 4.8 | 22.5 | 0.00 | 0.00 | 0.00 | 75 | 1002.0 |
| 20260506083259 | 17 | 110 | 9.7 | 22.5 | 0.00 | 0.00 | 0.00 | 74 | 1002.0 |
| 20260506082759 | 17 | 143 | 11.3 | 27.4 | 0.00 | 0.00 | 0.00 | 74 | 1002.0 |
| 20260506082259 | 17 | 132 | 6.4 | 27.4 | 0.00 | 0.00 | 0.00 | 74 | 1002.0 |
| 20260506081759 | 17 | 195 | 9.7 | 27.4 | 0.00 | 0.00 | 0.00 | 74 | 1002.0 |
| 20260506081259 | 17 | 187 | 11.3 | 22.5 | 0.00 | 0.00 | 0.00 | 74 | 1002.0 |
| 20260506080759 | 17 | 148 | 9.7 | 22.5 | 0.00 | 0.00 | 0.00 | 74 | 1002.0 |
| 20260506080259 | 17 | 167 | 4.8 | 14.5 | 0.00 | 0.00 | 0.00 | 73 | 1002.0 |
| 20260506073259 | 17 | 193 | 6.4 | 14.5 | 0.00 | 0.00 | 0.00 | 72 | 1002.2 |
| 20260506072759 | 17 | 165 | 8.0 | 22.5 | 0.00 | 0.00 | 0.00 | 72 | 1002.4 |
| 20260506072259 | 17 | 161 | 6.4 | 22.5 | 0.00 | 0.00 | 0.00 | 71 | 1002.4 |
| 20260506071759 | 17 | 149 | 9.7 | 17.7 | 0.00 | 0.00 | 0.00 | 71 | 1002.4 |
| 20260506071259 | 17 | 154 | 6.4 | 25.7 | 0.00 | 0.00 | 0.00 | 71 | 1002.4 |
| 20260506070759 | 17 | 188 | 8.0 | 25.7 | 0.00 | 0.00 | 0.00 | 71 | 1002.4 |
| 20260506070259 | 17 | 147 | 9.7 | 25.7 | 0.00 | 0.00 | 0.00 | 71 | 1002.4 |
| 20260506062259 | 17 | 199 | 3.2 | 22.5 | 0.00 | 0.00 | 0.00 | 69 | 1002.8 |
| 20260506061758 | 17 | 242 | 6.4 | 22.5 | 0.00 | 0.00 | 0.00 | 68 | 1002.8 |
| 20260506061258 | 17 | 196 | 4.8 | 22.5 | 0.00 | 0.00 | 0.00 | 68 | 1003.0 |
| 20260506060758 | 17 | 229 | 6.4 | 22.5 | 0.00 | 0.00 | 0.00 | 68 | 1003.0 |
| 20260506060259 | 17 | 206 | 19.3 | 19.3 | 0.00 | 0.00 | 0.00 | 68 | 1003.0 |
| 20260506051259 | 17 | 202 | 4.8 | 22.5 | 0.00 | 0.00 | 0.00 | 66 | 1003.3 |
| 20260506050758 | 17 | 146 | 9.7 | 22.5 | 0.00 | 0.00 | 0.00 | 67 | 1003.3 |
| 20260506050258 | 17 | 188 | 4.8 | 17.7 | 0.00 | 0.00 | 0.00 | 67 | 1003.3 |
| 20260506044758 | 17 | 165 | 3.2 | 22.5 | 0.00 | 0.00 | 0.00 | 67 | 1003.4 |
| 20260506044259 | 17 | 207 | 6.4 | 27.4 | 0.00 | 0.00 | 0.00 | 67 | 1003.4 |
| 20260506043758 | 17 | 167 | 8.0 | 27.4 | 0.00 | 0.00 | 0.00 | 66 | 1003.4 |
| 20260506043258 | 17 | 200 | 17.7 | 27.4 | 0.00 | 0.00 | 0.00 | 66 | 1003.4 |
| 20260506042758 | 17 | 190 | 3.2 | 24.1 | 0.00 | 0.00 | 0.00 | 65 | 1003.4 |
| 20260506042259 | 17 | 0 | 0.0 | 24.1 | 0.00 | 0.00 | 0.00 | 65 | 1003.4 |
| 20260506041759 | 17 | 131 | 14.5 | 16.1 | 0.00 | 0.00 | 0.00 | 65 | 1003.4 |
| 20260506041258 | 18 | 171 | 4.8 | 19.3 | 0.00 | 0.00 | 0.00 | 64 | 1003.2 |
| 20260506040759 | 18 | 162 | 9.7 | 19.3 | 0.00 | 0.00 | 0.00 | 64 | 1003.2 |
| 20260506040258 | 18 | 150 | 9.7 | 19.3 | 0.00 | 0.00 | 0.00 | 63 | 1003.2 |
| 20260506035758 | 18 | 219 | 9.7 | 17.7 | 0.00 | 0.00 | 0.00 | 62 | 1003.3 |
| 20260506035258 | 18 | 176 | 8.0 | 17.7 | 0.00 | 0.00 | 0.00 | 62 | 1003.3 |
| 20260506034758 | 18 | 167 | 3.2 | 14.5 | 0.00 | 0.00 | 0.00 | 61 | 1003.3 |
| 20260506034259 | 18 | 136 | 6.4 | 19.3 | 0.00 | 0.00 | 0.00 | 61 | 1003.0 |
| 20260506033759 | 18 | 205 | 6.4 | 17.7 | 0.00 | 0.00 | 0.00 | 60 | 1003.0 |
| 20260506033259 | 18 | 190 | 16.1 | 17.7 | 0.00 | 0.00 | 0.00 | 60 | 1003.0 |
| 20260506032758 | 19 | 174 | 3.2 | 20.9 | 0.00 | 0.00 | 0.00 | 59 | 1003.1 |
| 20260506032258 | 19 | 88 | 8.0 | 19.3 | 0.00 | 0.00 | 0.00 | 58 | 1003.1 |
| 20260506031759 | 19 | 226 | 4.8 | 17.7 | 0.00 | 0.00 | 0.00 | 58 | 1003.1 |
| 20260506031259 | 19 | 167 | 17.7 | 19.3 | 0.00 | 0.00 | 0.00 | 58 | 1003.1 |
| 20260506030758 | 19 | 147 | 6.4 | 17.7 | 0.00 | 0.00 | 0.00 | 57 | 1003.1 |
| 20260506030258 | 19 | 163 | 6.4 | 8.0 | 0.00 | 0.00 | 0.00 | 56 | 1003.1 |
| 20260506025759 | 19 | 206 | 8.0 | 24.1 | 0.00 | 0.00 | 0.00 | 56 | 1003.1 |
| 20260506025259 | 19 | 145 | 9.7 | 24.1 | 0.00 | 0.00 | 0.00 | 56 | 1003.1 |
| 20260506024759 | 20 | 214 | 24.1 | 24.1 | 0.00 | 0.00 | 0.00 | 55 | 1003.1 |
| 20260506024259 | 20 | 167 | 4.8 | 24.1 | 0.00 | 0.00 | 0.00 | 55 | 1003.4 |
| 20260506023758 | 20 | 193 | 9.7 | 24.1 | 0.00 | 0.00 | 0.00 | 55 | 1003.4 |
| 20260506023259 | 20 | 218 | 6.4 | 17.7 | 0.00 | 0.00 | 0.00 | 54 | 1003.4 |
| 20260506022759 | 20 | 191 | 9.7 | 25.7 | 0.00 | 0.00 | 0.00 | 54 | 1003.4 |
| 20260506022258 | 20 | 212 | 6.4 | 25.7 | 0.00 | 0.00 | 0.00 | 54 | 1003.4 |
| 20260506021758 | 20 | 129 | 11.3 | 16.1 | 0.00 | 0.00 | 0.00 | 53 | 1003.4 |
| 20260506021258 | 20 | 134 | 8.0 | 24.1 | 0.00 | 0.00 | 0.00 | 53 | 1003.4 |
| 20260506020758 | 20 | 178 | 4.8 | 24.1 | 0.00 | 0.00 | 0.00 | 52 | 1003.4 |
| 20260506020258 | 20 | 165 | 8.0 | 24.1 | 0.00 | 0.00 | 0.00 | 52 | 1003.4 |
| 20260506015758 | 20 | 169 | 3.2 | 24.1 | 0.00 | 0.00 | 0.00 | 52 | 1003.3 |
| 20260506015258 | 20 | 126 | 3.2 | 19.3 | 0.00 | 0.00 | 0.00 | 52 | 1003.3 |
| 20260506014759 | 20 | 198 | 8.0 | 8.0 | 0.00 | 0.00 | 0.00 | 52 | 1003.3 |
| 20260506014259 | 20 | 220 | 8.0 | 27.4 | 0.00 | 0.00 | 0.00 | 52 | 1003.2 |
| 20260506013758 | 20 | 150 | 14.5 | 27.4 | 0.00 | 0.00 | 0.00 | 52 | 1003.2 |
| 20260506013259 | 21 | 193 | 8.0 | 14.5 | 0.00 | 0.00 | 0.00 | 51 | 1003.2 |
| 20260506012758 | 21 | 159 | 3.2 | 25.7 | 0.00 | 0.00 | 0.00 | 51 | 1003.0 |
| 20260506012259 | 21 | 196 | 11.3 | 25.7 | 0.00 | 0.00 | 0.00 | 50 | 1003.0 |
| 20260506011758 | 21 | 162 | 6.4 | 25.7 | 0.00 | 0.00 | 0.00 | 50 | 1003.0 |
| 20260506011258 | 21 | 167 | 4.8 | 22.5 | 0.00 | 0.00 | 0.00 | 50 | 1002.9 |
| 20260506010759 | 21 | 189 | 3.2 | 16.1 | 0.00 | 0.00 | 0.00 | 49 | 1002.9 |
| 20260506010258 | 21 | 143 | 9.7 | 16.1 | 0.00 | 0.00 | 0.00 | 47 | 1002.9 |
| 20260506005758 | 21 | 131 | 8.0 | 19.3 | 0.00 | 0.00 | 0.00 | 46 | 1002.8 |
| 20260506005258 | 21 | 207 | 14.5 | 19.3 | 0.00 | 0.00 | 0.00 | 46 | 1002.8 |
| 20260506004759 | 21 | 184 | 1.6 | 9.7 | 0.00 | 0.00 | 0.00 | 46 | 1002.8 |
| 20260506004259 | 22 | 191 | 8.0 | 25.7 | 0.00 | 0.00 | 0.00 | 45 | 1002.6 |
| 20260506003759 | 22 | 189 | 4.8 | 25.7 | 0.00 | 0.00 | 0.00 | 46 | 1002.6 |
| 20260506003258 | 22 | 165 | 1.6 | 16.1 | 0.00 | 0.00 | 0.00 | 45 | 1002.6 |
| 20260506002759 | 22 | 125 | 6.4 | 20.9 | 0.00 | 0.00 | 0.00 | 45 | 1002.3 |
| 20260506002258 | 22 | 96 | 3.2 | 19.3 | 0.00 | 0.00 | 0.00 | 45 | 1002.3 |
| 20260506001758 | 22 | 167 | 6.4 | 19.3 | 0.00 | 0.00 | 0.00 | 45 | 1002.3 |
| 20260506001258 | 22 | 176 | 3.2 | 29.0 | 0.00 | 0.00 | 0.00 | 45 | 1002.6 |
| 20260506000758 | 22 | 195 | 3.2 | 29.0 | 0.00 | 0.00 | 0.00 | 45 | 1002.6 |
| 20260506000258 | 22 | 198 | 9.7 | 24.1 | 0.00 | 0.00 | 0.00 | 45 | 1002.6 |
| 20260505235758 | 22 | 163 | 3.2 | 20.9 | 0.00 | 0.00 | 0.00 | 44 | 1002.4 |
| 20260505235258 | 22 | 209 | 16.1 | 20.9 | 0.00 | 0.00 | 0.00 | 44 | 1002.4 |
| 20260505234759 | 22 | 300 | 3.2 | 20.9 | 0.00 | 0.00 | 0.00 | 44 | 1002.4 |
| 20260505234259 | 22 | 280 | 8.0 | 32.2 | 0.00 | 0.00 | 0.00 | 43 | 1002.3 |
| 20260505233758 | 22 | 223 | 6.4 | 32.2 | 0.00 | 0.00 | 0.00 | 43 | 1002.3 |
| 20260505233258 | 22 | 203 | 16.1 | 32.2 | 0.00 | 0.00 | 0.00 | 43 | 1002.3 |
| 20260505232758 | 22 | 172 | 8.0 | 29.0 | 0.00 | 0.00 | 0.00 | 41 | 1002.3 |
| 20260505232258 | 23 | 176 | 16.1 | 24.1 | 0.00 | 0.00 | 0.00 | 41 | 1002.3 |
| 20260505231759 | 23 | 171 | 8.0 | 24.1 | 0.00 | 0.00 | 0.00 | 41 | 1002.3 |
| 20260505231258 | 23 | 197 | 8.0 | 29.0 | 0.00 | 0.00 | 0.00 | 41 | 1002.4 |
| 20260505230759 | 23 | 175 | 16.1 | 29.0 | 0.00 | 0.00 | 0.00 | 41 | 1002.4 |
| 20260505230258 | 23 | 186 | 3.2 | 19.3 | 0.00 | 0.00 | 0.00 | 41 | 1002.4 |
| 20260505225758 | 23 | 200 | 6.4 | 33.8 | 0.00 | 0.00 | 0.00 | 40 | 1002.1 |
| 20260505225258 | 23 | 205 | 11.3 | 33.8 | 0.00 | 0.00 | 0.00 | 39 | 1002.1 |
| 20260505224758 | 23 | 197 | 9.7 | 33.8 | 0.00 | 0.00 | 0.00 | 39 | 1002.1 |
| 20260505224258 | 23 | 149 | 14.5 | 25.7 | 0.00 | 0.00 | 0.00 | 39 | 1002.0 |
| 20260505223759 | 24 | 230 | 9.7 | 25.7 | 0.00 | 0.00 | 0.00 | 40 | 1002.0 |
| 20260505223258 | 24 | 194 | 4.8 | 25.7 | 0.00 | 0.00 | 0.00 | 40 | 1002.0 |
| 20260505222758 | 24 | 234 | 14.5 | 25.7 | 0.00 | 0.00 | 0.00 | 40 | 1002.2 |
| 20260505222258 | 24 | 195 | 6.4 | 25.7 | 0.00 | 0.00 | 0.00 | 38 | 1002.2 |
| 20260505221759 | 24 | 185 | 8.0 | 20.9 | 0.00 | 0.00 | 0.00 | 39 | 1002.2 |
| 20260505221259 | 24 | 213 | 3.2 | 24.1 | 0.00 | 0.00 | 0.00 | 39 | 1002.0 |
| 20260505220758 | 24 | 259 | 4.8 | 24.1 | 0.00 | 0.00 | 0.00 | 40 | 1002.0 |
| 20260505220259 | 24 | 195 | 8.0 | 20.9 | 0.00 | 0.00 | 0.00 | 39 | 1002.0 |
| 20260505215758 | 24 | 252 | 3.2 | 27.4 | 0.00 | 0.00 | 0.00 | 40 | 1002.2 |
| 20260505215258 | 24 | 174 | 11.3 | 27.4 | 0.00 | 0.00 | 0.00 | 39 | 1002.2 |
| 20260505214758 | 24 | 238 | 9.7 | 25.7 | 0.00 | 0.00 | 0.00 | 39 | 1002.2 |
| 20260505214258 | 24 | 214 | 4.8 | 29.0 | 0.00 | 0.00 | 0.00 | 40 | 1002.1 |
| 20260505213758 | 24 | 245 | 9.7 | 24.1 | 0.00 | 0.00 | 0.00 | 39 | 1002.1 |
| 20260505213258 | 24 | 234 | 8.0 | 8.0 | 0.00 | 0.00 | 0.00 | 40 | 1002.1 |
| 20260505212759 | 24 | 185 | 4.8 | 20.9 | 0.00 | 0.00 | 0.00 | 41 | 1002.0 |
| 20260505212259 | 24 | 227 | 3.2 | 20.9 | 0.00 | 0.00 | 0.00 | 40 | 1002.0 |
| 20260505211758 | 24 | 184 | 9.7 | 20.9 | 0.00 | 0.00 | 0.00 | 39 | 1002.0 |
| 20260505211258 | 24 | 195 | 20.9 | 35.4 | 0.00 | 0.00 | 0.00 | 41 | 1001.7 |
| 20260505210758 | 24 | 162 | 4.8 | 35.4 | 0.00 | 0.00 | 0.00 | 39 | 1001.7 |
| 20260505210259 | 24 | 274 | 14.5 | 35.4 | 0.00 | 0.00 | 0.00 | 39 | 1001.7 |
| 20260505205758 | 24 | 257 | 9.7 | 29.0 | 0.00 | 0.00 | 0.00 | 39 | 1001.7 |
| 20260505205258 | 24 | 192 | 11.3 | 22.5 | 0.00 | 0.00 | 0.00 | 39 | 1001.7 |
| 20260505204758 | 24 | 200 | 6.4 | 20.9 | 0.00 | 0.00 | 0.00 | 40 | 1001.7 |
| 20260505204258 | 24 | 229 | 9.7 | 25.7 | 0.00 | 0.00 | 0.00 | 39 | 1001.7 |
| 20260505203759 | 25 | 278 | 14.5 | 24.1 | 0.00 | 0.00 | 0.00 | 38 | 1001.7 |
| 20260505203258 | 25 | 242 | 6.4 | 20.9 | 0.00 | 0.00 | 0.00 | 38 | 1001.7 |
| 20260505202758 | 25 | 219 | 9.7 | 25.7 | 0.00 | 0.00 | 0.00 | 39 | 1001.8 |
| 20260505202258 | 25 | 262 | 6.4 | 25.7 | 0.00 | 0.00 | 0.00 | 39 | 1001.8 |
| 20260505201758 | 25 | 205 | 9.7 | 25.7 | 0.00 | 0.00 | 0.00 | 38 | 1001.8 |
| 20260505201258 | 25 | 218 | 11.3 | 25.7 | 0.00 | 0.00 | 0.00 | 37 | 1002.0 |
| 20260505200758 | 25 | 188 | 4.8 | 25.7 | 0.00 | 0.00 | 0.00 | 37 | 1002.0 |
| 20260505200258 | 25 | 264 | 3.2 | 16.1 | 0.00 | 0.00 | 0.00 | 36 | 1002.0 |
| 20260505195758 | 25 | 204 | 4.8 | 25.7 | 0.00 | 0.00 | 0.00 | 36 | 1001.7 |
| 20260505195258 | 25 | 216 | 16.1 | 25.7 | 0.00 | 0.00 | 0.00 | 36 | 1001.7 |
| 20260505194758 | 25 | 271 | 8.0 | 25.7 | 0.00 | 0.00 | 0.00 | 37 | 1001.7 |
| 20260505194258 | 25 | 134 | 16.1 | 35.4 | 0.00 | 0.00 | 0.00 | 36 | 1001.7 |
| 20260505193758 | 25 | 231 | 6.4 | 27.4 | 0.00 | 0.00 | 0.00 | 35 | 1001.7 |
| 20260505193258 | 25 | 250 | 9.7 | 19.3 | 0.00 | 0.00 | 0.00 | 37 | 1001.7 |
| 20260505192758 | 25 | 203 | 22.5 | 25.7 | 0.00 | 0.00 | 0.00 | 35 | 1002.0 |
| 20260505192258 | 25 | 144 | 6.4 | 25.7 | 0.00 | 0.00 | 0.00 | 35 | 1002.0 |
| 20260505191759 | 25 | 252 | 11.3 | 25.7 | 0.00 | 0.00 | 0.00 | 35 | 1002.0 |
| 20260505191259 | 25 | 190 | 9.7 | 29.0 | 0.00 | 0.00 | 0.00 | 36 | 1002.1 |
| 20260505190759 | 25 | 176 | 25.7 | 29.0 | 0.00 | 0.00 | 0.00 | 35 | 1002.1 |
| 20260505190259 | 25 | 229 | 16.1 | 24.1 | 0.00 | 0.00 | 0.00 | 34 | 1002.1 |
| 20260505185758 | 25 | 202 | 9.7 | 29.0 | 0.00 | 0.00 | 0.00 | 34 | 1002.3 |
| 20260505185259 | 25 | 207 | 8.0 | 24.1 | 0.00 | 0.00 | 0.00 | 34 | 1002.3 |
| 20260505184758 | 26 | 185 | 11.3 | 19.3 | 0.00 | 0.00 | 0.00 | 34 | 1002.3 |
| 20260505184258 | 26 | 307 | 11.3 | 29.0 | 0.00 | 0.00 | 0.00 | 34 | 1002.4 |
| 20260505183759 | 25 | 210 | 6.4 | 29.0 | 0.00 | 0.00 | 0.00 | 34 | 1002.4 |